{"data":{"norad_id":44339,"intl_designator":"2019-036A","name":"PROX-1","alt_names":[],"object_type":"PAYLOAD","status":"ACTIVE","operator":null,"country":"US","launch_date":"2019-06-25","launch_site_code":"AFETR","launch_vehicle":null,"mission":null,"orbit_class":"UNKNOWN","rcs_meters":null,"size_class":null,"mass_kg":null,"dimensions":null,"purposes":[],"wikipedia_slug":null,"has_3d_model":false,"image_url":null,"decayed_at":null,"tle_current":{"epoch":"2026-05-25T00:35:32.845344Z","epoch_age_seconds":69424,"freshness":"FRESH","line1":"1 44339U 19036A   26145.02468571  .00012369  00000+0  12228-2 0  9990","line2":"2 44339  23.9950 268.9077 0006581 119.7701 240.3454 14.89981024370017","mean_motion":14.89981024,"eccentricity":0.0006581,"inclination_deg":23.995,"raan_deg":268.9077,"arg_perigee_deg":119.7701,"mean_anomaly_deg":240.3454,"bstar":0.0012228,"rev_number":37001,"period_min":96.645526137922,"perigee_km":593.40390300653,"apogee_km":602.58588780727,"semimajor_km":6976.1318954069,"source":"CELESTRAK","updated_at":"2026-05-25T13:37:55.968520Z"}}}